This demonstration page uses our WeatherBlox Daily Observations layout. Learn more.

Left ArrowRight Arrow

Hourly Observations for January 15, 2017

Temp ( °F °C ) Dew Point ( °F °C ) Humidity (%) Winds ( mph kmh ) Pressure ( in mb ) Visibility ( mi km ) Precip ( " mm )
12:53 am 00:53 Cloudy 29 -1.7 17 -8.3 61 61 S 3 6 30.42 1030 10 16 0.00 0.00
1:53 am 01:53 Cloudy 29 -1.7 17 -8.3 61 61 S 3 6 30.39 1029 10 16 0.00 0.00
2:53 am 02:53 Cloudy 29 -1.7 17 -8.3 61 61 S 5 7 30.38 1029 10 16 0.00 0.00
3:53 am 03:53 Cloudy 30 -1.1 18 -7.8 61 61 Calm 30.36 1028 10 16 0.00 0.00
4:53 am 04:53 Cloudy 29 -1.7 21 -6.1 72 72 Calm 30.35 1028 10 16 0.00 0.03
5:31 am 05:31 Cloudy 29 -1.7 21 -6.1 72 72 SE 3 6 30.39 1029 10 16 0.00 0.03
5:53 am 05:53 Cloudy 29 -1.7 21 -6.1 72 72 SE 6 9 30.36 1028 10 16 0.00 0.03
6:53 am 06:53 Cloudy 28 -2.2 22 -5.6 78 78 S 8 13 30.36 1028 7 11 0.00 0.00
7:53 am 07:53 Cloudy with Mist and Fog 27 -2.8 23 -5 85 85 S 3 6 30.35 1028 6 10 0.00 0.00
8:23 am 08:23 Cloudy with Mist and Fog 26 -3.3 24 -4.4 92 92 Calm 30.39 1029 5 8 0.00 0.00
8:53 am 08:53 Cloudy with Mist and Fog 27 -2.8 24 -4.4 89 89 ESE 3 6 30.33 1027 6 10 0.00 0.00
9:14 am 09:14 Cloudy with Mist and Fog 27 -3 25 -4 93 93 SSE 3 6 30.39 1029 6 10 0.00 0.00
9:45 am 09:45 Cloudy with Mist and Fog 27 -2.8 25 -3.9 92 92 SE 5 7 30.39 1029 5 8 0.00 0.00
9:53 am 09:53 Cloudy with Light Snow 27 -2.8 25 -3.9 92 92 SE 5 7 30.34 1028 4 6 0.00 0.03
10:06 am 10:06 Cloudy with Light Freezing Rain 28 -2 27 -3 93 93 SE 7 11 30.36 1028 3 4 0.00 0.00
10:13 am 10:13 Cloudy with Mist and Fog 28 -2.2 25 -3.9 88 88 ESE 6 9 30.36 1028 3 5 0.00 0.03
10:38 am 10:38 Cloudy with Light Freezing Rain 28 -2 27 -3 93 93 SE 6 9 30.36 1028 3 4 0.00 0.00
10:49 am 10:49 Cloudy with Light Freezing Rain 28 -2 27 -3 93 93 SSE 6 9 30.36 1028 2 2 0.00 0.03
10:53 am 10:53 Cloudy with Light Freezing Rain 28 -2.2 27 -2.8 96 96 SE 7 11 30.34 1028 2 2 0.00 0.03
11:09 am 11:09 Cloudy with Light Freezing Rain 28 -2.2 26 -3.3 92 92 SSE 6 9 30.36 1028 2 3 0.01 0.25
11:39 am 11:39 Cloudy with Light Freezing Rain 29 -1.7 26 -3.3 89 89 SE 7 11 30.33 1027 3 5 0.03 0.76
11:48 am 11:48 Cloudy with Freezing Rain 28 -2 27 -3 93 93 SSE 6 9 30.33 1027 3 4 0.00 0.00
11:53 am 11:53 Cloudy with Light Freezing Rain 29 -1.7 27 -2.8 92 92 SSE 6 9 30.29 1026 3 5 0.05 1.27
12:04 pm 12:04 Cloudy with Freezing Rain 28 -2 27 -3 93 93 SE 5 7 30.30 1026 3 4 0.00 0.00
12:15 pm 12:15 Cloudy with Light Freezing Rain 28 -2 27 -3 93 93 SE 5 7 30.30 1026 5 8 0.00 0.00
12:23 pm 12:23 Cloudy with Light Wintry Mix 29 -1.7 27 -2.8 92 92 E 5 7 30.30 1026 5 8 0.03 0.76
12:53 pm 12:53 Cloudy with Light Wintry Mix 30 -1.1 28 -2.2 92 92 ESE 5 7 30.24 1024 4 6 0.04 1.02
1:53 pm 13:53 Cloudy with Light Wintry Mix 30 -1.1 28 -2.2 92 92 SE 6 9 30.22 1023 5 8 0.00 0.03
2:12 pm 14:12 Cloudy with Light Freezing Rain 30 -1 27 -3 86 86 SE 5 7 30.24 1024 5 8 0.00 0.00
2:26 pm 14:26 Cloudy with Mist and Fog 30 -1.1 28 -2.2 92 92 ESE 3 6 30.24 1024 6 10 0.00 0.03
2:53 pm 14:53 Cloudy with Light Wintry Mix 30 -1.1 28 -2.2 92 92 ESE 5 7 30.20 1023 10 16 0.00 0.03
3:26 pm 15:26 Cloudy with Light Freezing Rain 30 -1 28 -2 93 93 SE 5 7 30.24 1024 5 8 0.00 0.00
3:45 pm 15:45 Cloudy with Light Wintry Mix 30 -1.1 28 -2.2 92 92 ESE 6 9 30.21 1023 5 8 0.00 0.03
3:53 pm 15:53 Cloudy with Light Freezing Rain 30 -1.1 28 -2.2 92 92 E 5 7 30.19 1022 4 6 0.01 0.25
4:44 pm 16:44 Cloudy 30 -1.1 28 -2.2 92 92 E 5 7 30.21 1023 10 16 0.00 0.03
4:53 pm 16:53 Cloudy 30 -1.1 28 -2.2 92 92 ESE 5 7 30.19 1022 10 16 0.00 0.03
5:38 pm 17:38 Cloudy 30 -1 28 -2 93 93 E 5 7 30.21 1023 10 16 0.00 0.00
5:53 pm 17:53 Cloudy 30 -1.1 28 -2.2 92 92 E 6 9 30.17 1022 7 11 0.00 0.00
6:53 pm 18:53 Cloudy with Mist and Fog 30 -1.1 28 -2.2 92 92 E 7 11 30.17 1022 6 10 0.00 0.00
7:53 pm 19:53 Cloudy with Mist and Fog 30 -1.1 28 -2.2 92 92 E 6 9 30.16 1022 3 5 0.00 0.00
8:10 pm 20:10 Cloudy with Mist and Fog 30 -1 28 -2 93 93 E 6 9 30.21 1023 3 4 0.00 0.00
8:53 pm 20:53 Cloudy with Mist and Fog 30 -1.1 28 -2.2 92 92 ESE 6 9 30.16 1021 3 5 0.00 0.00
9:26 pm 21:26 Cloudy with Light Freezing Rain 30 -1 28 -2 93 93 ESE 7 11 30.21 1023 5 8 0.00 0.00
9:53 pm 21:53 Cloudy with Light Freezing Rain 30 -1.1 29 -1.7 96 96 ESE 6 9 30.15 1021 7 11 0.01 0.25
10:53 pm 22:53 Cloudy with Light Freezing Rain 31 -0.6 29 -1.7 92 92 E 3 6 30.13 1020 6 10 0.01 0.25
11:53 pm 23:53 Cloudy with Light Freezing Rain 31 -0.6 29 -1.7 92 92 ESE 5 7 30.13 1020 4 6 0.02 0.51

Powered by AerisWeather